TimeAKDT,TemperatureF,Dew PointF,Humidity,Sea Level PressureIn,VisibilityMPH,Wind Direction,Wind SpeedMPH,Gust SpeedMPH,PrecipitationIn,Events,Conditions,WindDirDegrees,DateUTC
12:53 AM,25.0,5.0,43,30.07,10.0,NNE,12.7,19.6,N/A,,Clear,20,2013-04-13 08:53:00
1:53 AM,25.0,3.9,41,30.09,10.0,North,11.5,-,N/A,,Clear,360,2013-04-13 09:53:00
2:53 AM,25.0,5.0,43,30.09,10.0,North,16.1,27.6,N/A,,Clear,10,2013-04-13 10:53:00
3:53 AM,24.1,5.0,44,30.11,10.0,North,19.6,25.3,N/A,,Clear,10,2013-04-13 11:53:00
4:53 AM,24.1,5.0,44,30.11,10.0,NNE,16.1,25.3,N/A,,Clear,20,2013-04-13 12:53:00
5:53 AM,23.0,6.1,48,30.13,10.0,North,13.8,23.0,N/A,,Clear,10,2013-04-13 13:53:00
6:53 AM,21.9,5.0,48,30.14,10.0,North,13.8,-,N/A,,Clear,360,2013-04-13 14:53:00
7:53 AM,23.0,5.0,46,30.15,10.0,North,20.7,28.8,N/A,,Clear,10,2013-04-13 15:53:00
8:53 AM,24.1,5.0,44,30.17,10.0,North,13.8,28.8,N/A,,Clear,10,2013-04-13 16:53:00
9:53 AM,26.1,3.9,39,30.18,10.0,North,18.4,27.6,N/A,,Clear,360,2013-04-13 17:53:00
10:53 AM,27.0,5.0,39,30.20,10.0,NW,20.7,29.9,N/A,,Clear,320,2013-04-13 18:53:00
11:53 AM,28.9,6.1,38,30.21,10.0,NNW,18.4,27.6,N/A,,Clear,340,2013-04-13 19:53:00
12:53 PM,30.0,6.1,36,30.22,10.0,North,17.3,27.6,N/A,,Clear,350,2013-04-13 20:53:00
1:53 PM,32.0,6.1,34,30.22,10.0,NNW,18.4,26.5,N/A,,Clear,330,2013-04-13 21:53:00
2:53 PM,32.0,7.0,35,30.23,10.0,NW,24.2,33.4,N/A,,Clear,320,2013-04-13 22:53:00
3:53 PM,33.1,7.0,34,30.24,10.0,NNW,19.6,36.8,N/A,,Clear,330,2013-04-13 23:53:00
4:53 PM,34.0,7.0,32,30.25,10.0,NW,18.4,32.2,N/A,,Clear,320,2013-04-14 00:53:00
5:53 PM,34.0,6.1,31,30.26,10.0,NNW,17.3,31.1,N/A,,Clear,330,2013-04-14 01:53:00
6:53 PM,34.0,5.0,30,30.27,10.0,NW,20.7,33.4,N/A,,Clear,320,2013-04-14 02:53:00
7:53 PM,33.1,5.0,31,30.29,10.0,NW,18.4,27.6,N/A,,Clear,320,2013-04-14 03:53:00
8:53 PM,32.0,5.0,32,30.30,10.0,NNW,15.0,27.6,N/A,,Clear,340,2013-04-14 04:53:00
9:53 PM,32.0,3.9,31,30.31,10.0,North,12.7,19.6,N/A,,Clear,360,2013-04-14 05:53:00
10:53 PM,30.9,6.1,35,30.33,10.0,North,15.0,23.0,N/A,,Clear,360,2013-04-14 06:53:00
11:53 PM,30.9,6.1,35,30.33,10.0,North,16.1,28.8,N/A,,Clear,10,2013-04-14 07:53:00